Location: Siloam Springs
(36.1881°N, 94.5403°W)
Time: 04:59:46
(UTC-05:00)

CUBESAT XI-V - Pass Details

Date: 04 June 2024
Orbit: 657 x 679 km, 98.2° (Epoch: 16 June)

Event Time Altitude Azimuth Distance (km) Brightness Sun altitude
Exits shadow 02:03:23 - 89° (E) 2,200 ? -30.3°
Reaches altitude 10° 02:04:19 10° 79° (ENE) 2,070 ? -30.2°
Maximum altitude 02:05:29 11° 64° (ENE) 2,010 ? -30.2°
Drops below altitude 10° 02:06:38 10° 48° (NE) 2,073 ? -30.1°
Sets 02:10:37 0° 13° (NNE) 2,992 ? -29.9°
